Regional Weather Roundup
Issued by NWS Charleston, WV

Home | Current Version | Previous Version | Text Only | Print | Product List | Glossary On
Versions: 1 2 3 4 5 6 7 8 9 10 11 12 13 14 15 16 17 18 19 20 21 22 23 24 25 26 27 28 29 30 31 32 33 34 35 36 37 38 39 40 41 42 43 44 45 46 47 48 49 50
000
ASUS41 KRLX 241910
RWRRLX
West Virginia Regional Weather Roundup
National Weather Service Charleston WV
300 PM EDT SUN MAY 24 2015

Note: "fair" indicates few or no clouds below 12,000 feet with no
significant weather and/or obstructions to visibility.

WVZ003-242000-
Northern Panhandle of West Virginia

CITY           SKY/WX    TMP DP  RH WIND       PRES   REMARKS
WHEELING       NOT AVBL
$$

WVZ009-242000-
Northwest West Virginia

CITY           SKY/WX    TMP DP  RH WIND       PRES   REMARKS
PARKERSBURG    MOSUNNY   81  51  35 W8        30.28F
$$

WVZ006-242000-
Western West Virginia

CITY           SKY/WX    TMP DP  RH WIND       PRES   REMARKS
HUNTINGTON     MOSUNNY   82  54  37 VRB3      30.25F
$$

WVZ015-242000-
West Central West Virginia

CITY           SKY/WX    TMP DP  RH WIND       PRES   REMARKS
CHARLESTON     MOSUNNY   83  53  35 VRB3      30.26F
$$

WVZ022-031-242000-
North Central West Virginia

CITY           SKY/WX    TMP DP  RH WIND       PRES   REMARKS
CLARKSBURG     SUNNY     80  51  36 S10G17    30.28F
MORGANTOWN     SUNNY     81  43  26 SW8       30.29F
$$

WVZ025-035-042-045-242000-
Southern West Virginia

CITY           SKY/WX    TMP DP  RH WIND       PRES   REMARKS
BECKLEY        MOSUNNY   76  49  38 SE7       30.34F
LOGAN            N/A     81  52  36 VRB3      30.26F
BLUEFIELD      SUNNY     78  45  30 S8        30.37F
LEWISBURG      SUNNY     79  46  30 S8        30.35F
$$

WVZ047-242000-
Northern Mountains of West Virginia

CITY           SKY/WX    TMP DP  RH WIND       PRES   REMARKS
ELKINS         SUNNY     78  45  30 CALM      30.31F
$$

WVZ052-242000-
Eastern Panhandle of West Virginia

CITY           SKY/WX    TMP DP  RH WIND       PRES   REMARKS
MARTINSBURG    SUNNY     79  46  31 SE5       30.30F
PETERSBURG     MOSUNNY   82  45  27 E3        30.28F
$$


USA.gov is the U.S. government's official web portal to all federal, state and local government web resources and services.